This demonstration page uses our WeatherBlox Daily Observations layout. Learn more.

Left ArrowRight Arrow

Hourly Observations for December 12, 2015

Temp ( °F °C ) Dew Point ( °F °C ) Humidity (%) Winds ( mph kmh ) Pressure ( in mb ) Visibility ( mi km ) Precip ( " mm )
12:53 am 00:53 Cloudy 61 16.1 57 13.9 87 87 S 5 7 29.95 1014 10 16 N/A
1:53 am 01:53 Cloudy 63 17.2 58 14.4 84 84 VRB 3 6 29.96 1015 10 16 N/A
2:41 am 02:41 Cloudy 64 17.8 58 14.4 81 81 VRB 5 7 29.97 1015 10 16 N/A
2:53 am 02:53 Mostly Cloudy 65 18.3 59 15 81 81 S 5 7 29.96 1015 10 16 N/A
3:53 am 03:53 Mostly Cloudy 65 18.3 59 15 81 81 VRB 7 11 29.96 1015 10 16 N/A
4:53 am 04:53 Mostly Cloudy 64 17.8 59 15 84 84 N N/A 29.96 1015 10 16 N/A
5:53 am 05:53 Cloudy 64 17.8 59 15 84 84 VRB 3 6 29.99 1016 10 16 N/A
6:53 am 06:53 Cloudy 64 17.8 59 15 84 84 VRB 3 6 30.01 1016 10 16 N/A
7:53 am 07:53 Cloudy 66 18.9 60 15.6 81 81 SW 6 9 30.02 1017 10 16 N/A
8:53 am 08:53 Cloudy 67 19.4 61 16.1 81 81 SSW 7 11 30.04 1017 10 16 N/A
9:23 am 09:23 Cloudy 68 20 61 16.1 78 78 SSW 9 15 30.06 1018 10 16 N/A
9:33 am 09:33 Cloudy 68 20 61 16.1 78 78 SSW 9 15 30.06 1018 10 16 N/A
9:53 am 09:53 Cloudy 68 20 61 16.1 78 78 SW 12 19 30.05 1018 10 16 N/A
10:15 am 10:15 Cloudy 68 20 61 16.1 78 78 SSW 8 13 30.06 1018 10 16 N/A
10:51 am 10:51 Cloudy 70 21 61 16 73 73 SSW 10 17 30.06 1018 10 16 N/A
10:53 am 10:53 Cloudy 69 20.6 61 16.1 76 76 VRB 7 11 30.06 1018 10 16 N/A
11:46 am 11:46 Cloudy 70 21.1 61 16.1 73 73 SSW 9 15 30.06 1018 10 16 N/A
11:53 am 11:53 Cloudy 70 21.1 61 16.1 73 73 SSW 8 13 30.06 1018 10 16 N/A
12:46 pm 12:46 Cloudy 70 21.1 61 16.1 73 73 SSW 9 15 30.06 1018 10 16 N/A
12:53 pm 12:53 Cloudy 70 21.1 61 16.1 73 73 SW 9 15 30.06 1018 10 16 N/A
1:53 pm 13:53 Cloudy 71 21.7 61 16.1 71 71 SSW 7 11 30.06 1018 10 16 N/A
2:53 pm 14:53 Cloudy 71 21.7 59 15 66 66 SW 8 13 30.05 1018 10 16 N/A
3:53 pm 15:53 Cloudy 71 21.7 58 14.4 63 63 SW 8 13 30.06 1018 10 16 N/A
4:53 pm 16:53 Cloudy 70 21.1 59 15 68 68 VRB 6 9 30.08 1019 10 16 N/A
5:53 pm 17:53 Cloudy 68 20 58 14.4 70 70 S 5 7 30.10 1019 10 16 N/A
6:53 pm 18:53 Cloudy 67 19.4 58 14.4 73 73 S 6 9 30.11 1020 10 16 N/A
7:53 pm 19:53 Partly Cloudy 66 18.9 57 13.9 73 73 S 5 7 30.11 1020 10 16 N/A
8:53 pm 20:53 Clear 65 18.3 57 13.9 76 76 VRB 5 7 30.11 1020 10 16 N/A
9:53 pm 21:53 Clear 63 17.2 57 13.9 81 81 N N/A 30.12 1020 10 16 N/A
10:53 pm 22:53 Clear 62 16.7 57 13.9 84 84 N N/A 30.13 1020 10 16 N/A
11:53 pm 23:53 Clear 61 16.1 57 13.9 87 87 N N/A 30.11 1020 10 16 N/A

Powered by AerisWeather